#datint,netname,site,siteID,timestamp,IntT,BattV,AirT2,AirT,AirT_Avg,AirT_Max,AirT_Min,RH_Avg,RH_Max,RH_Min,EA_Avg,Td_Avg,Td_Max,Td_Min,WindS_Smp,WindS_Avg,WindD_Avg,WindD_SD,WindS_Max,ETo,ETr,SoilT4,SoilT8,SoilVWC8,SolarW_Avg,wetstate_Avg,wetT_Avg,Precip_accum,Precip_WPG,Precip_TB
15min,AgWx,beryljct,423,19NOV2018:00:00:00,21.1,12.83,20.4,20.8,19.7,20.8,19.0,68,70,66,0.255,10.8,11.6,10.1,0,0.2,0.0,0.0,1.0,-0.00017,-0.00026,37.6,40.7,22,0,0,35.4,8.36,0.00,0.00
15min,AgWx,beryljct,423,19NOV2018:00:15:00,20.5,12.83,23.0,22.7,22.1,22.8,20.8,64,66,61,0.256,11.7,12.1,11.3,1.447,0.9,0.0,0.0,1.6,-0.00013,-0.00017,37.5,40.7,22,0,0,35.4,8.36,0.00,0.00
15min,AgWx,beryljct,423,19NOV2018:00:30:00,20.0,12.8,20.8,19.7,20.5,22.7,19.1,65,68,61,0.249,10.7,11.6,9.8,2.872,2.4,145,34,3.5,-0.00005,-0.00005,37.4,40.6,21,0,0,35.4,8.36,0.00,0.00
15min,AgWx,beryljct,423,19NOV2018:00:45:00,19.6,12.67,19.6,19.8,19.0,20.2,17.0,68,72,66,0.247,10.3,11.5,8.0,2.302,3.3,192,5.6,4.1,-0.00002,-0.00002,37.3,40.6,21,0,0,35.7,8.36,0.00,0.00
15min,AgWx,beryljct,423,19NOV2018:01:00:00,19.0,12.78,19.8,18.1,19.4,21.3,17.5,68,72,65,0.245,10.5,12.5,8.8,1.381,1.5,185,0.1,2.5,-0.00008,-0.00010,37.2,40.5,21,0,0,35.7,8.36,0.00,0.00
15min,AgWx,beryljct,423,19NOV2018:01:15:00,18.5,12.78,20.5,20.8,19.6,21.1,18.2,69,72,65,0.268,11.1,12.6,9.6,0.789,0.9,185,0.1,2.0,-0.00012,-0.00017,37.1,40.5,21,0,0,35.5,8.36,0.00,0.00
15min,AgWx,beryljct,423,19NOV2018:01:30:00,18.2,12.77,21.1,23.1,20.2,23.1,18.4,68,71,64,0.272,11.2,13.2,9.6,0.877,1.2,185,0.1,2.3,-0.00010,-0.00013,36.9,40.4,21,0,0,35.5,8.36,0.00,0.00
15min,AgWx,beryljct,423,19NOV2018:01:45:00,18.2,12.74,16.3,14.3,16.8,23.7,14.3,71,75,61,0.217,8.8,13.2,7.8,2.455,3.8,159,11,6.8,-0.00001,-0.00001,36.8,40.4,21,0,0,35.4,8.36,0.00,0.00
15min,AgWx,beryljct,423,19NOV2018:02:00:00,17.5,12.73,13.3,11.6,13.1,14.5,11.5,76,78,75,0.200,6.9,8.3,5.7,0.745,2.0,179,6.2,3.1,-0.00006,-0.00007,36.7,40.3,21,0,0,35.7,8.36,0.00,0.00
15min,AgWx,beryljct,423,19NOV2018:02:15:00,16.6,12.71,14.1,13.7,13.2,13.8,11.4,77,80,76,0.219,7.3,8.1,5.8,0,0.9,158,9.2,2.3,-0.00010,-0.00014,36.7,40.3,21,0,0,35.5,8.36,0.00,0.00
15min,AgWx,beryljct,423,19NOV2018:02:30:00,15.7,12.71,11.4,10.3,11.1,13.9,9.4,77,79,76,0.193,5.4,8.1,3.7,1.885,1.5,298,71,4.8,-0.00008,-0.00009,36.6,40.2,21,0,0,35.3,8.36,0.00,0.00
15min,AgWx,beryljct,423,19NOV2018:02:45:00,15.1,12.54,12.5,13.2,11.5,13.2,10.4,77,79,75,0.209,5.6,6.9,5.1,3.42,3.3,339,9.1,4.1,-0.00003,-0.00003,36.5,40.2,21,0,0,35.5,8.36,0.00,0.00
15min,AgWx,beryljct,423,19NOV2018:03:00:00,14.6,12.54,10.9,10.0,10.5,13.3,9.3,76,79,72,0.187,4.4,6.9,3.2,1.008,1.7,347,0.5,2.9,-0.00006,-0.00008,36.4,40.1,21,0,0,35.7,8.36,0.00,0.00
15min,AgWx,beryljct,423,19NOV2018:03:15:00,13.9,12.62,9.6,7.8,9.2,10.4,7.8,77,78,76,0.166,3.3,4.9,2.0,1.447,2.1,347,0.1,3.0,-0.00005,-0.00006,36.3,40.1,21,0,0,35.7,8.36,0.00,0.00
15min,AgWx,beryljct,423,19NOV2018:03:30:00,13.2,12.62,9.5,9.3,8.6,9.4,7.7,77,78,76,0.176,3.0,3.5,1.9,2.674,2.0,320,21,2.9,-0.00006,-0.00007,36.2,40.0,22,0,0,35.3,8.37,0.00,0.00
15min,AgWx,beryljct,423,19NOV2018:03:45:00,12.8,12.62,9.9,9.4,9.2,9.7,8.6,76,77,75,0.180,3.2,3.7,2.6,0.877,2.3,13,15,2.9,-0.00005,-0.00005,36.1,40.0,21,0,0,35.8,8.36,0.00,0.00
15min,AgWx,beryljct,423,19NOV2018:04:00:00,12.2,12.62,8.8,8.0,8.2,9.4,7.6,77,78,76,0.170,2.4,3.6,1.8,0,0.3,22,0.0,1.4,-0.00011,-0.00016,36.0,39.9,21,0,0,35.7,8.36,0.00,0.00
15min,AgWx,beryljct,423,19NOV2018:04:15:00,11.7,12.62,9.0,7.9,8.3,8.6,7.9,79,81,77,0.175,3.1,3.6,2.3,2.916,1.6,149,28,2.9,-0.00007,-0.00008,36.0,39.8,21,0,0,35.7,8.36,0.00,0.00
15min,AgWx,beryljct,423,19NOV2018:04:30:00,11.2,12.61,8.1,8.1,7.4,8.1,6.8,81,82,80,0.178,2.7,3.5,1.8,0.57,2.2,196,5.0,4.1,-0.00005,-0.00006,35.9,39.8,21,0,0,35.7,8.37,0.00,0.00
15min,AgWx,beryljct,423,19NOV2018:04:45:00,10.8,12.61,8.8,8.0,8.1,8.4,7.7,80,81,79,0.175,3.2,3.7,2.6,2.74,1.6,197,0.2,2.7,-0.00007,-0.00008,35.8,39.7,21,0,0,35.5,8.37,0.00,0.00
15min,AgWx,beryljct,423,19NOV2018:05:00:00,10.6,12.6,8.4,7.9,7.7,8.0,7.4,81,82,80,0.177,2.9,3.4,2.6,2.565,2.9,198,0.1,3.3,-0.00004,-0.00004,35.8,39.7,21,0,0,35.7,8.36,0.00,0.00
15min,AgWx,beryljct,423,19NOV2018:05:15:00,10.3,12.61,9.6,8.9,8.8,9.1,7.9,81,82,80,0.181,4.0,4.6,3.2,0.504,1.1,197,0.1,2.4,-0.00008,-0.00011,35.7,39.6,21,0,0,35.6,8.36,0.00,0.00
15min,AgWx,beryljct,423,19NOV2018:05:30:00,10.1,12.59,9.0,7.4,8.4,8.9,7.4,79,80,79,0.170,3.3,3.9,2.3,1.995,1.4,197,0.1,2.0,-0.00007,-0.00009,35.6,39.6,21,0,0,35.6,8.36,0.00,0.00
15min,AgWx,beryljct,423,19NOV2018:05:45:00,9.9,12.45,9.5,9.2,8.5,9.6,7.3,81,82,79,0.188,3.8,5.2,2.3,3.464,2.3,192,4.2,3.6,-0.00005,-0.00006,35.6,39.5,22,0,0,35.5,8.36,0.00,0.00
15min,AgWx,beryljct,423,19NOV2018:06:00:00,10.0,12.44,10.6,8.9,9.9,10.6,8.9,80,82,78,0.179,5.0,5.7,3.5,2.543,2.8,182,1.6,3.6,-0.00004,-0.00005,35.5,39.5,21,0,0,35.7,8.36,0.00,0.00
15min,AgWx,beryljct,423,19NOV2018:06:15:00,10.1,12.44,9.8,9.3,9.0,9.7,8.6,80,82,78,0.185,4.2,5.2,3.4,1.206,2.2,187,1.3,3.0,-0.00005,-0.00006,35.4,39.4,21,0,0,35.6,8.36,0.00,0.00
15min,AgWx,beryljct,423,19NOV2018:06:30:00,10.0,12.57,10.7,9.4,10.0,11.2,9.1,80,82,79,0.187,5.1,6.7,4.1,0.943,1.3,188,0.0,2.0,-0.00008,-0.00010,35.4,39.4,21,0,0,35.5,8.37,0.00,0.00
15min,AgWx,beryljct,423,19NOV2018:06:45:00,9.9,12.57,9.8,9.0,9.1,9.5,8.9,80,80,79,0.184,4.2,4.6,3.9,0.592,0.5,188,0.1,0.9,0.00001,0.00002,35.3,39.3,21,0,0,35.4,8.37,0.00,0.00
15min,AgWx,beryljct,423,19NOV2018:07:00:00,9.6,12.57,9.1,7.9,8.5,9.2,7.9,80,81,79,0.176,3.6,4.3,3.2,0,0.3,188,0.0,0.6,0.00001,0.00001,35.2,39.3,21,0,0,35.7,8.37,0.00,0.00
15min,AgWx,beryljct,423,19NOV2018:07:15:00,9.2,12.57,8.2,7.2,7.6,7.9,7.0,81,81,80,0.170,2.9,3.2,2.3,0,0.0,188,0.0,0.5,0.00001,0.00001,35.2,39.2,21,2,0,35.6,8.37,0.00,0.00
15min,AgWx,beryljct,423,19NOV2018:07:30:00,8.9,12.62,7.4,5.6,6.9,8.2,5.6,80,81,79,0.157,2.0,3.5,0.6,1.03,0.7,245,36,1.8,0.00003,0.00004,35.1,39.2,21,8,0,35.6,8.37,0.00,0.00
15min,AgWx,beryljct,423,19NOV2018:07:45:00,8.8,12.94,7.5,7.9,6.6,7.9,5.5,81,81,80,0.175,1.8,3.2,0.6,0.723,0.6,276,0.0,1.2,0.00012,0.00013,35.0,39.1,21,53,0,35.7,8.37,0.00,0.00
15min,AgWx,beryljct,423,19NOV2018:08:00:00,9.8,13.2,9.7,9.6,8.9,9.6,7.9,80,81,80,0.190,4.0,4.8,3.2,0.438,0.6,277,0.8,1.1,0.00018,0.00020,35.0,39.1,21,89,0,35.7,8.37,0.00,0.00
15min,AgWx,beryljct,423,19NOV2018:08:15:00,12.0,14.4,12.4,13.7,11.5,13.7,9.6,82,82,81,0.228,6.9,9.0,4.8,2.017,1.1,297,17,2.4,0.00026,0.00029,34.9,39.0,22,125,0,35.7,8.36,0.00,0.00
15min,AgWx,beryljct,423,19NOV2018:08:30:00,15.0,14.9,15.7,16.2,14.9,16.2,13.7,78,81,77,0.241,9.4,10.2,8.7,2.631,2.2,336,6.2,3.0,0.00038,0.00043,34.9,39.0,22,164,0,35.6,8.36,0.00,0.00
15min,AgWx,beryljct,423,19NOV2018:08:45:00,18.1,14.95,18.0,18.4,17.3,18.4,16.2,74,77,72,0.252,10.5,11.1,10.0,2.324,2.2,347,19,3.2,0.00050,0.00058,34.8,38.9,22,203,0,35.6,8.36,0.00,0.00
15min,AgWx,beryljct,423,19NOV2018:09:00:00,21.0,14.9,20.1,20.2,19.5,20.3,18.5,71,73,68,0.256,11.5,12.1,11.1,3.069,2.7,21,12,4.2,0.00064,0.00074,34.8,38.9,22,244,0,35.8,8.36,0.00,0.00
15min,AgWx,beryljct,423,19NOV2018:09:15:00,23.5,14.98,21.4,21.4,20.9,21.7,20.3,67,69,65,0.258,11.6,12.4,11.0,1.578,2.5,47,19,3.8,0.00078,0.00090,34.7,38.8,22,285,0,36.4,8.36,0.00,0.00
15min,AgWx,beryljct,423,19NOV2018:09:30:00,25.8,14.9,22.4,22.6,21.9,22.6,21.4,65,67,63,0.263,11.9,12.7,11.2,2.192,2.9,79,11,4.0,0.00091,0.00105,34.6,38.8,22,326,0,38.2,8.36,0.00,0.00
15min,AgWx,beryljct,423,19NOV2018:09:45:00,27.7,14.84,24.2,24.4,23.6,24.4,22.6,62,65,60,0.274,12.6,13.4,11.9,2.192,2.0,83,15,4.0,0.00106,0.00120,34.6,38.7,22,362,0,42.0,8.36,0.00,0.00
15min,AgWx,beryljct,423,19NOV2018:10:00:00,29.8,14.82,25.9,25.9,25.3,26.3,24.5,60,62,58,0.278,13.3,14.0,12.6,0,1.5,117,16,2.9,0.00122,0.00136,34.6,38.7,22,396,0,46.5,8.36,0.00,0.00
15min,AgWx,beryljct,423,19NOV2018:10:15:00,31.9,14.77,27.8,28.4,27.2,29.2,25.9,56,59,52,0.279,13.5,14.4,12.9,0,0.5,140,7.2,2.0,0.00139,0.00151,34.5,38.7,22,428,0,50.8,8.36,0.00,0.00
15min,AgWx,beryljct,423,19NOV2018:10:30:00,34.0,14.74,28.6,28.6,28.1,29.4,27.2,54,57,52,0.282,13.7,14.4,13.3,0,0.8,94,35,2.4,0.00152,0.00166,34.5,38.6,22,457,0,51.8,8.35,0.00,0.00
15min,AgWx,beryljct,423,19NOV2018:10:45:00,35.9,14.7,30.3,30.0,29.8,30.7,28.6,52,54,50,0.285,14.2,15.1,13.6,0.877,1.0,108,44,3.1,0.00166,0.00183,34.5,38.6,22,483,0,53.8,8.35,0.00,0.00
15min,AgWx,beryljct,423,19NOV2018:11:00:00,37.5,14.27,32.1,31.9,31.7,33.0,29.9,48,51,46,0.288,14.4,15.3,13.8,2.85,1.1,100,47,4.1,0.00181,0.00200,34.4,38.5,22,507,0,53.7,8.35,0.00,0.00
15min,AgWx,beryljct,423,19NOV2018:11:15:00,38.6,14.28,32.9,33.0,32.5,33.3,31.5,47,49,46,0.296,14.7,15.5,14.0,3.003,2.1,68,38,5.5,0.00191,0.00216,34.4,38.5,21,527,0,52.8,8.35,0.00,0.00
15min,AgWx,beryljct,423,19NOV2018:11:30:00,39.6,14.34,33.9,33.8,33.5,34.0,32.9,45,47,43,0.289,14.5,15.4,13.8,2.872,2.7,45,28,5.9,0.00200,0.00230,34.4,38.4,22,540,0,50.7,8.35,0.00,0.00
15min,AgWx,beryljct,423,19NOV2018:11:45:00,40.2,14.24,35.3,35.2,34.9,35.6,33.7,44,45,42,0.297,15.0,16.1,14.2,2.762,2.7,72,33,5.7,0.00209,0.00241,34.4,38.4,21,553,0,51.7,8.35,0.00,0.00
15min,AgWx,beryljct,423,19NOV2018:12:00:00,40.8,14.19,36.4,35.6,36.0,36.7,35.2,41,44,39,0.284,14.6,16.4,13.5,1.359,5.4,23,23,8.9,0.00219,0.00268,34.4,38.4,21,560,0,48.8,8.35,0.00,0.00
15min,AgWx,beryljct,423,19NOV2018:12:15:00,41.2,14.2,37.3,37.5,36.8,37.6,35.7,39,41,37,0.284,14.2,15.3,13.5,3.376,4.1,33,25,8.8,0.00225,0.00269,34.4,38.3,21,566,0,49.1,8.35,0.00,0.00
15min,AgWx,beryljct,423,19NOV2018:12:30:00,41.9,14.17,38.4,38.3,38.1,39.3,37.2,37,39,36,0.285,14.2,15.5,13.5,3.354,2.8,32,47,6.7,0.00231,0.00268,34.4,38.3,21,567,0,52.0,8.35,0.00,0.00
15min,AgWx,beryljct,423,19NOV2018:12:45:00,42.9,14.14,39.3,39.2,39.0,39.7,38.3,36,38,35,0.289,14.4,16.1,13.9,4.845,3.8,7.5,27,7.2,0.00235,0.00280,34.4,38.2,21,563,0,51.1,8.34,0.00,0.00
15min,AgWx,beryljct,423,19NOV2018:13:00:00,43.9,14.13,40.6,41.0,40.2,41.3,39.2,35,36,32,0.280,14.4,15.5,13.0,2.214,2.9,44,28,6.3,0.00237,0.00278,34.4,38.2,21,558,0,52.7,8.34,0.00,0.00
15min,AgWx,beryljct,423,19NOV2018:13:15:00,45.0,14.06,41.6,41.6,41.3,42.0,40.9,32,34,30,0.270,13.8,15.2,12.7,6.314,3.3,38,26,10.2,0.00239,0.00284,34.4,38.2,21,548,0,52.5,8.34,0.00,0.00
15min,AgWx,beryljct,423,19NOV2018:13:30:00,45.9,14.07,42.3,42.9,41.9,43.0,41.3,30,32,29,0.273,13.1,14.3,12.3,2.916,3.3,53,31,6.9,0.00237,0.00284,34.4,38.2,21,534,0,51.6,8.34,0.00,0.00
15min,AgWx,beryljct,423,19NOV2018:13:45:00,46.7,14,43.1,42.8,42.9,43.5,42.5,28,30,27,0.255,12.0,13.5,10.9,3.749,4.9,48,20,8.4,0.00242,0.00303,34.4,38.1,21,517,0,50.7,8.34,0.00,0.00
15min,AgWx,beryljct,423,19NOV2018:14:00:00,47.4,14.1,43.8,43.9,43.5,44.4,42.7,26,29,24,0.247,11.0,13.0,8.9,3.529,3.7,44,19,7.2,0.00221,0.00273,34.5,38.1,22,477,0,50.8,8.33,0.00,0.00
15min,AgWx,beryljct,423,19NOV2018:14:15:00,48.2,14.02,44.5,44.4,44.2,44.7,43.8,25,26,24,0.248,10.9,12.0,10.1,4.582,5.0,25,18,8.1,0.00230,0.00295,34.7,38.1,21,471,0,49.7,8.33,0.00,0.00
15min,AgWx,beryljct,423,19NOV2018:14:30:00,48.7,13.98,45.1,44.8,44.8,45.2,44.4,25,26,24,0.242,10.8,11.9,10.0,5.283,4.7,6.5,16,8.2,0.00215,0.00277,35.0,38.1,21,437,0,49.7,8.33,0.00,0.00
15min,AgWx,beryljct,423,19NOV2018:14:45:00,49.4,13.96,45.5,45.8,45.1,45.8,44.5,25,27,24,0.276,11.5,13.4,10.0,3.398,2.6,16,20,6.2,0.00189,0.00231,35.3,38.0,21,416,0,51.7,8.33,0.00,0.00
15min,AgWx,beryljct,423,19NOV2018:15:00:00,50.2,13.91,46.2,46.2,45.9,46.5,45.5,26,28,25,0.275,13.1,14.4,11.9,3.705,4.5,53,21,8.6,0.00191,0.00249,35.7,38.0,21,381,0,51.7,8.33,0.00,0.00
15min,AgWx,beryljct,423,19NOV2018:15:15:00,50.8,13.92,46.4,46.4,46.2,46.7,45.8,27,29,25,0.286,13.9,15.6,12.5,1.556,3.5,42,14,7.2,0.00165,0.00214,36.1,38.0,21,345,0,51.9,8.33,0.00,0.00
15min,AgWx,beryljct,423,19NOV2018:15:30:00,51.3,13.95,46.8,46.7,46.6,46.9,46.3,26,28,25,0.286,13.7,15.7,12.3,5.941,2.8,30,27,5.9,0.00140,0.00181,36.5,38.0,21,308,0,54.0,8.32,0.00,0.00
15min,AgWx,beryljct,423,19NOV2018:15:45:00,51.8,13.96,46.8,46.8,46.6,46.9,46.4,26,28,24,0.262,13.5,15.4,12.0,3.88,3.2,39,16,5.9,0.00125,0.00169,36.9,38.0,21,269,0,53.0,8.32,0.00,0.00
15min,AgWx,beryljct,423,19NOV2018:16:00:00,51.9,14,47.1,46.9,47.0,47.2,46.8,25,26,24,0.283,12.6,14.1,11.7,3.113,4.0,36,12,6.6,0.00117,0.00170,37.2,38.0,21,230,0,52.3,8.32,0.00,0.00
15min,AgWx,beryljct,423,19NOV2018:16:15:00,51.8,13.93,47.0,46.5,46.8,47.2,46.5,25,27,23,0.272,12.7,15.0,10.8,2.543,3.5,37,16,6.5,0.00091,0.00136,37.4,38.1,21,191,0,51.5,8.32,0.00,0.00
15min,AgWx,beryljct,423,19NOV2018:16:30:00,51.2,13.93,46.3,46.0,46.1,46.7,45.2,26,29,23,0.244,12.7,14.8,10.4,2.894,2.4,48,19,3.5,0.00036,0.00052,37.7,38.1,21,147,0,51.3,8.32,0.00,0.00
15min,AgWx,beryljct,423,19NOV2018:16:45:00,50.2,13.99,46.6,46.1,46.3,46.6,45.9,23,24,22,0.245,10.3,11.4,9.7,1.556,1.9,5.1,4.6,3.3,0.00023,0.00034,37.9,38.2,21,103,0,49.1,8.32,0.00,0.00
15min,AgWx,beryljct,423,19NOV2018:17:00:00,48.6,13.45,45.3,43.8,45.2,46.2,43.8,24,25,23,0.241,10.5,10.9,10.1,2.28,2.3,14,10,3.2,0.00013,0.00022,38.0,38.2,22,46,0,45.1,8.33,0.00,0.00
15min,AgWx,beryljct,423,19NOV2018:17:15:00,45.6,13.29,40.5,39.7,40.7,44.0,39.1,28,29,24,0.238,10.1,10.9,9.5,0.723,0.7,353,6.8,2.5,-0.00017,-0.00024,38.1,38.3,21,11,0,37.8,8.33,0.00,0.00
15min,AgWx,beryljct,423,19NOV2018:17:30:00,41.1,13.21,33.3,30.2,34.1,39.9,30.2,37,43,28,0.246,10.2,10.9,9.3,2.521,1.2,309,25,2.8,-0.00010,-0.00013,38.2,38.4,21,3,0,35.5,8.33,0.00,0.00
15min,AgWx,beryljct,423,19NOV2018:17:45:00,36.8,13.16,30.8,28.7,30.5,33.9,28.5,42,46,37,0.242,10.4,11.4,9.4,2.214,2.2,274,2.2,2.7,-0.00002,-0.00000,38.2,38.4,21,0,0,35.6,8.33,0.00,0.00
15min,AgWx,beryljct,423,19NOV2018:18:00:00,33.7,13.15,35.2,34.3,34.0,37.3,28.6,37,46,32,0.248,10.5,11.0,9.7,1.929,2.3,292,19,2.9,-0.00000,0.00002,38.2,38.5,21,0,0,35.7,8.34,0.00,0.00
15min,AgWx,beryljct,423,19NOV2018:18:15:00,32.1,13.12,36.3,36.6,35.5,36.7,33.7,36,38,34,0.270,11.1,12.7,10.3,3.968,2.3,327,26,5.1,-0.00001,0.00002,38.2,38.6,21,0,0,35.8,8.34,0.00,0.00
15min,AgWx,beryljct,423,19NOV2018:18:30:00,31.9,13.12,34.7,32.0,34.7,36.6,32.0,40,44,37,0.268,12.7,13.0,12.4,3.332,3.4,18,7.7,5.2,0.00007,0.00012,38.1,38.6,21,0,0,35.5,8.33,0.00,0.00
15min,AgWx,beryljct,423,19NOV2018:18:45:00,31.8,13.11,34.1,33.2,33.5,34.7,32.1,44,45,42,0.289,13.8,14.4,12.5,5.152,5.6,33,5.9,9.0,0.00015,0.00020,37.9,38.7,21,0,0,35.5,8.33,0.00,0.00
15min,AgWx,beryljct,423,19NOV2018:19:00:00,31.3,13.07,31.4,32.0,31.1,33.2,28.5,48,53,45,0.281,13.7,14.2,13.0,0,1.8,101,51,5.5,-0.00006,-0.00006,37.8,38.7,21,0,0,35.6,8.34,0.00,0.00
15min,AgWx,beryljct,423,19NOV2018:19:15:00,30.5,13.07,32.2,32.1,31.7,32.2,31.1,46,47,45,0.280,13.4,13.6,13.1,1.732,1.4,59,14,4.6,-0.00010,-0.00012,37.6,38.8,21,0,0,35.7,8.34,0.00,0.00
15min,AgWx,beryljct,423,19NOV2018:19:30:00,30.0,13.04,30.5,29.9,30.2,32.4,28.9,48,52,45,0.272,13.1,13.8,12.6,4.691,4.2,30,13,6.0,0.00007,0.00010,37.5,38.8,21,0,0,35.5,8.34,0.00,0.00
15min,AgWx,beryljct,423,19NOV2018:19:45:00,29.6,13.03,30.0,27.4,29.7,30.9,27.1,48,54,47,0.272,12.6,13.0,11.7,1.556,2.1,19,6.7,4.9,-0.00004,-0.00003,37.3,38.8,21,0,0,35.6,8.34,0.00,0.00
15min,AgWx,beryljct,423,19NOV2018:20:00:00,28.9,13.03,30.4,30.1,29.6,30.4,27.5,50,53,48,0.275,13.0,13.3,12.8,0.68,0.8,325,45,2.1,-0.00015,-0.00021,37.2,38.8,21,0,0,35.7,8.34,0.00,0.00
15min,AgWx,beryljct,423,19NOV2018:20:15:00,28.3,13.02,30.1,29.0,29.7,30.6,28.6,50,52,48,0.280,13.2,13.5,12.8,1.403,1.3,26,6.5,2.8,-0.00011,-0.00014,37.0,38.9,21,0,0,35.8,8.34,0.00,0.00
15min,AgWx,beryljct,423,19NOV2018:20:30:00,27.9,13.01,29.8,30.1,29.2,30.2,27.5,52,55,50,0.285,13.6,14.1,12.5,1.293,1.3,233,34,3.2,-0.00010,-0.00013,36.9,38.9,21,0,0,35.5,8.34,0.00,0.00
15min,AgWx,beryljct,423,19NOV2018:20:45:00,27.4,12.86,29.7,30.0,29.1,30.0,27.5,52,56,50,0.289,13.9,14.5,13.2,0,0.4,218,0.1,1.7,-0.00020,-0.00029,36.8,38.9,21,0,0,35.7,8.34,0.00,0.00
15min,AgWx,beryljct,423,19NOV2018:21:00:00,26.9,12.98,30.9,30.9,30.2,31.0,29.8,51,51,50,0.290,14.2,14.4,13.7,0,0.5,218,0.1,1.6,-0.00019,-0.00027,36.7,38.9,21,0,0,35.7,8.35,0.00,0.00
15min,AgWx,beryljct,423,19NOV2018:21:15:00,26.6,12.96,28.8,28.0,28.6,30.8,25.9,53,58,48,0.294,13.7,14.8,10.4,2.609,0.9,258,19,3.7,-0.00014,-0.00019,36.5,38.9,21,0,0,35.4,8.35,0.00,0.00
15min,AgWx,beryljct,423,19NOV2018:21:30:00,26.5,12.96,28.5,27.9,28.0,29.7,26.6,54,56,51,0.280,13.6,14.6,11.8,4.034,3.1,297,9.1,4.9,-0.00000,0.00002,36.4,38.8,21,0,0,35.6,8.35,0.00,0.00
15min,AgWx,beryljct,423,19NOV2018:21:45:00,26.2,12.95,27.7,25.8,27.4,29.2,25.8,54,57,52,0.264,13.1,14.2,11.7,4.45,4.0,312,12,4.9,0.00004,0.00006,36.3,38.8,21,0,0,35.5,8.35,0.00,0.00
15min,AgWx,beryljct,423,19NOV2018:22:00:00,25.5,12.92,24.3,24.1,24.0,25.7,22.7,58,60,56,0.263,11.5,12.5,10.1,4.954,5.4,317,6.0,6.0,0.00006,0.00008,36.2,38.8,21,0,0,35.6,8.35,0.00,0.00
15min,AgWx,beryljct,423,19NOV2018:22:15:00,24.7,12.91,25.0,24.6,24.4,25.2,23.4,59,62,58,0.260,12.2,13.2,11.6,5.086,4.9,315,6.6,5.5,0.00004,0.00006,36.2,38.8,21,0,0,35.5,8.35,0.00,0.00
15min,AgWx,beryljct,423,19NOV2018:22:30:00,23.9,12.91,22.7,23.9,22.2,24.4,19.8,62,66,57,0.260,11.1,12.6,8.3,4.165,2.8,334,15,4.9,-0.00002,-0.00002,36.1,38.8,21,0,0,35.5,8.35,0.00,0.00
15min,AgWx,beryljct,423,19NOV2018:22:45:00,23.3,12.88,20.6,16.8,20.8,23.8,16.6,62,69,58,0.223,9.7,11.9,7.5,0.46,2.8,338,22,4.4,-0.00002,-0.00002,36.0,38.8,21,0,0,35.7,8.35,0.00,0.00
15min,AgWx,beryljct,423,19NOV2018:23:00:00,22.1,12.88,19.4,18.8,18.6,19.3,16.8,67,70,65,0.229,9.6,10.0,8.6,1.381,0.4,291,2.4,1.6,-0.00015,-0.00023,35.9,38.8,21,0,0,35.5,8.35,0.00,0.00
15min,AgWx,beryljct,423,19NOV2018:23:15:00,21.1,12.72,18.7,17.2,18.2,19.3,17.2,67,72,64,0.236,9.1,10.4,7.9,0,0.6,258,62,3.5,-0.00013,-0.00019,35.8,38.7,21,0,0,35.8,8.36,0.00,0.00
15min,AgWx,beryljct,423,19NOV2018:23:30:00,20.4,12.85,18.8,16.8,18.2,19.5,16.8,66,72,64,0.217,8.8,10.2,7.6,0,1.2,79,30,3.8,-0.00010,-0.00012,35.8,38.7,21,0,0,35.5,8.36,0.00,0.00
15min,AgWx,bigpiney,439,19NOV2018:00:00:00,9.5,12.62,9.2,8.1,8.9,9.4,8.1,74,75,73,0.161,2.3,2.9,1.3,3.201,4.7,219,3.2,6.3,0.00002,0.00002,33.8,36.1,39,0,0,0.0,.,0.00,0.00
15min,AgWx,bigpiney,439,19NOV2018:00:15:00,9.5,12.61,9.8,9.9,9.1,10.8,7.9,73,74,70,0.169,2.1,3.3,1.2,5.744,5.3,223,10,6.8,0.00002,0.00003,33.8,36.2,39,0,0,0.0,.,0.00,0.00
15min,AgWx,bigpiney,439,19NOV2018:00:30:00,9.6,12.61,10.5,9.4,10.1,11.7,9.0,70,72,67,0.165,2.3,3.6,1.4,4.406,4.9,227,8.2,7.0,0.00003,0.00004,33.8,36.2,39,0,0,0.0,.,0.00,0.00
15min,AgWx,bigpiney,439,19NOV2018:00:45:00,9.8,12.6,10.9,11.1,10.2,11.5,9.1,72,73,70,0.176,2.9,3.7,1.7,6.818,6.8,232,5.2,8.1,0.00004,0.00005,33.8,36.1,39,0,0,0.0,.,0.00,0.00
15min,AgWx,bigpiney,439,19NOV2018:01:00:00,10.3,12.59,12.4,12.9,11.7,12.9,11.0,69,70,67,0.184,3.6,4.2,3.2,5.152,6.1,236,5.8,7.3,0.00004,0.00005,33.8,36.2,39,0,0,0.0,.,0.00,0.00
15min,AgWx,bigpiney,439,19NOV2018:01:15:00,10.8,12.58,14.3,15.2,13.6,15.3,12.6,66,68,64,0.193,4.5,5.2,3.8,7.081,6.5,237,7.8,8.3,0.00005,0.00007,33.8,36.2,39,0,0,0.0,.,0.00,0.00
15min,AgWx,bigpiney,439,19NOV2018:01:30:00,11.6,12.58,16.9,18.5,16.1,18.7,14.7,62,64,56,0.193,5.4,5.9,3.9,4.428,5.8,249,52,8.9,0.00006,0.00008,33.8,36.1,39,0,0,0.0,.,0.00,0.00
15min,AgWx,bigpiney,439,19NOV2018:01:45:00,12.2,12.56,9.8,8.7,10.4,17.9,8.5,70,76,55,0.173,2.5,4.6,1.9,5.437,5.1,100,18,7.9,0.00003,0.00004,33.8,36.2,39,0,0,0.0,.,0.00,0.00
15min,AgWx,bigpiney,439,19NOV2018:02:00:00,12.1,12.56,10.5,9.5,9.9,10.9,8.7,75,76,73,0.174,3.5,4.3,2.7,3.573,4.0,146,9.7,6.4,0.00001,0.00002,33.8,36.1,39,0,0,0.0,.,0.00,0.00
15min,AgWx,bigpiney,439,19NOV2018:02:15:00,11.7,12.55,9.8,9.0,9.3,9.9,7.7,75,77,74,0.176,3.0,3.5,1.3,4.801,3.7,180,28,5.3,0.00000,0.00001,33.8,36.1,39,0,0,0.0,.,0.00,0.00
15min,AgWx,bigpiney,439,19NOV2018:02:30:00,11.1,12.55,9.9,9.5,9.4,10.1,7.9,74,77,73,0.175,2.8,3.9,1.3,4.582,4.2,192,17,5.2,0.00001,0.00002,33.8,36.1,39,0,0,0.0,.,0.00,0.00
15min,AgWx,bigpiney,439,19NOV2018:02:45:00,10.7,12.55,11.4,10.4,10.8,11.5,9.6,73,75,73,0.177,3.9,4.7,3.1,4.406,3.9,173,8.8,4.9,0.00001,0.00002,33.8,36.1,39,0,0,0.0,.,0.00,0.00
15min,AgWx,bigpiney,439,19NOV2018:03:00:00,10.2,12.54,11.2,11.9,10.5,11.9,9.7,72,73,70,0.183,3.3,4.3,2.5,6.072,4.3,192,7.1,6.1,0.00002,0.00003,33.8,36.1,39,0,0,0.0,.,0.00,0.00
15min,AgWx,bigpiney,439,19NOV2018:03:15:00,9.9,12.53,11.1,10.5,10.6,11.8,9.9,71,73,69,0.178,3.1,3.9,2.1,5.02,3.8,185,9.2,6.1,0.00001,0.00002,33.8,36.1,39,0,0,0.0,.,0.00,0.00
15min,AgWx,bigpiney,439,19NOV2018:03:30:00,9.7,12.53,10.7,9.0,10.4,12.4,8.7,71,74,69,0.170,3.0,4.5,1.9,2.455,3.9,199,11,5.8,0.00001,0.00002,33.8,36.2,39,0,0,0.0,.,0.00,0.00
15min,AgWx,bigpiney,439,19NOV2018:03:45:00,9.5,12.53,13.9,14.4,12.7,14.7,9.1,69,75,65,0.188,4.6,5.3,2.6,2.959,2.6,150,21,4.1,-0.00000,0.00000,33.8,36.1,39,0,0,0.0,.,0.00,0.00
15min,AgWx,bigpiney,439,19NOV2018:04:00:00,9.7,12.51,13.2,11.7,13.0,14.4,11.6,67,71,65,0.184,4.1,4.7,3.3,1.863,2.6,136,13,4.1,0.00000,0.00001,33.8,36.1,39,0,0,0.0,.,0.00,0.00
15min,AgWx,bigpiney,439,19NOV2018:04:15:00,9.8,12.53,10.0,7.5,10.1,11.7,7.5,73,74,71,0.157,3.0,4.2,0.6,2.083,1.7,177,31,2.4,-0.00002,-0.00003,33.8,36.1,39,0,0,0.0,.,0.00,0.00
15min,AgWx,bigpiney,439,19NOV2018:04:30:00,9.5,12.51,8.6,7.6,8.2,9.0,7.4,76,77,74,0.164,2.1,3.3,0.8,1.776,1.9,96,80,3.8,-0.00002,-0.00003,33.8,36.2,39,0,0,0.0,.,0.00,0.00
15min,AgWx,bigpiney,439,19NOV2018:04:45:00,9.1,12.51,9.1,8.9,8.4,9.3,7.5,76,78,74,0.174,2.6,3.3,1.3,2.872,1.1,260,39,2.9,-0.00004,-0.00005,33.8,36.1,39,0,0,0.0,.,0.00,0.00
15min,AgWx,bigpiney,439,19NOV2018:05:00:00,8.6,12.5,10.2,9.6,9.5,9.9,8.9,76,77,75,0.178,3.4,3.7,3.0,2.587,2.5,215,12,3.4,-0.00001,-0.00001,33.8,36.1,39,0,0,0.0,.,0.00,0.00
15min,AgWx,bigpiney,439,19NOV2018:05:15:00,8.2,12.51,8.4,7.4,8.1,9.6,6.9,75,77,74,0.163,1.9,3.5,0.4,4.757,3.8,222,6.4,5.0,0.00001,0.00001,33.8,36.1,39,0,0,0.0,.,0.00,0.00
15min,AgWx,bigpiney,439,19NOV2018:05:30:00,7.9,12.49,7.4,6.7,7.1,7.6,6.6,76,77,75,0.157,1.2,1.8,0.7,3.617,4.6,226,4.9,5.8,0.00001,0.00002,33.8,36.1,39,0,0,0.0,.,0.00,0.00
15min,AgWx,bigpiney,439,19NOV2018:05:45:00,7.8,12.51,8.0,7.7,7.4,7.9,6.6,76,77,75,0.164,1.5,2.1,0.7,4.954,4.7,222,10,6.5,0.00001,0.00002,33.8,36.1,39,0,0,0.0,.,0.00,0.00
15min,AgWx,bigpiney,439,19NOV2018:06:00:00,7.7,12.49,7.1,6.3,6.8,7.6,6.2,76,78,75,0.158,0.9,1.5,0.3,4.647,4.8,220,3.9,5.6,0.00001,0.00002,33.8,36.1,39,0,0,0.0,.,0.00,0.00
15min,AgWx,bigpiney,439,19NOV2018:06:15:00,7.5,12.5,7.2,6.5,6.7,7.2,6.2,78,79,77,0.158,1.2,1.7,0.6,4.428,4.6,226,5.4,5.7,0.00001,0.00001,33.8,36.1,39,0,0,0.0,.,0.00,0.00
15min,AgWx,bigpiney,439,19NOV2018:06:30:00,7.5,12.49,6.8,6.6,6.3,6.9,6.0,78,79,77,0.159,0.9,1.6,0.5,3.968,4.0,234,5.8,5.0,0.00000,0.00001,33.8,36.1,39,0,0,0.0,.,0.00,0.00
15min,AgWx,bigpiney,439,19NOV2018:06:45:00,7.3,12.5,6.0,6.2,5.6,6.6,4.6,79,81,77,0.159,0.3,1.5,-0.7,3.924,2.9,278,27,4.1,-0.00001,-0.00001,33.8,36.1,39,0,0,0.0,.,0.00,0.00
15min,AgWx,bigpiney,439,19NOV2018:07:00:00,7.1,12.48,7.4,7.9,6.8,7.9,6.0,79,79,78,0.169,1.5,2.5,0.9,3.573,3.8,277,6.1,4.6,-0.00000,0.00000,33.8,36.1,39,0,0,0.0,.,0.00,0.00
15min,AgWx,bigpiney,439,19NOV2018:07:15:00,7.1,12.51,6.9,5.9,6.6,8.5,4.9,77,78,75,0.155,0.8,2.9,-0.9,3.617,4.3,262,12,5.4,0.00001,0.00001,33.8,36.1,39,2,0,0.0,.,0.00,0.00
15min,AgWx,bigpiney,439,19NOV2018:07:30:00,7.1,15.02,7.7,6.9,7.1,8.0,5.9,77,77,76,0.160,1.3,2.2,0.4,3.749,3.9,241,8.0,5.4,0.00002,0.00002,33.8,36.1,39,18,0,0.0,.,0.00,0.00
15min,AgWx,bigpiney,439,19NOV2018:07:45:00,7.5,15,8.5,8.1,7.9,8.5,6.9,77,79,77,0.173,2.3,2.9,1.1,3.727,4.9,228,6.2,6.4,-0.00001,0.00005,33.8,36.1,39,51,0,0.0,.,0.00,0.00
15min,AgWx,bigpiney,439,19NOV2018:08:00:00,8.5,15,9.4,8.6,8.9,10.2,8.1,79,79,77,0.175,3.6,4.7,2.7,2.894,2.6,268,91,5.1,0.00002,0.00005,33.8,36.1,39,84,0,0.0,.,0.00,0.00
15min,AgWx,bigpiney,439,19NOV2018:08:15:00,9.9,15.06,7.8,8.1,7.4,8.6,6.5,81,83,78,0.181,2.8,3.9,1.5,0.833,2.5,96,20,4.6,0.00009,0.00012,33.8,36.1,39,120,0,0.0,.,0.00,0.00
15min,AgWx,bigpiney,439,19NOV2018:08:30:00,11.6,15,10.3,11.4,9.7,11.4,8.1,82,83,81,0.208,5.2,6.8,3.7,1.359,0.6,95,19,2.0,0.00017,0.00018,33.8,36.1,39,156,0,0.0,.,0.00,0.00
15min,AgWx,bigpiney,439,19NOV2018:08:45:00,13.8,14.98,12.7,13.1,12.2,13.6,11.1,81,82,80,0.221,7.4,8.9,6.4,1.644,0.3,21,30,1.6,0.00028,0.00030,33.8,36.1,39,192,0,0.0,.,0.00,0.00